Location: Kielce
(50.8833°N, 20.6167°E)
Time: 22:34:17
(UTC+02:00)

SR - Pass Details

Date: 25 April 2021
Orbit: 573 x 882 km, 66.7° (Epoch: 09 May)

Event Time Altitude Azimuth Distance (km) Brightness Sun altitude
Rises 13:01:46 0° 318° (NW) 3,492 ? 52.1°
Reaches altitude 10° 13:04:45 10° 331° (NNW) 2,544 ? 52.0°
Maximum altitude 13:09:38 26° 27° (NNE) 1,650 ? 51.8°
Drops below altitude 10° 13:14:21 10° 82° (E) 2,450 ? 51.6°
Sets 13:17:09 0° 96° (E) 3,336 ? 51.5°
